Weather in Nizhny-Noyber

Russia / Chechen Republic     43°16′12″N   46°16′37″E
temp.,
°C
wind,
m/s
gust,
m/s
humid.,
%
clouds,
%
prec.,
mm/h
press.,
hPa
HPBL,
m
16 may, mon
mon1600:00+17wsw3770100 0.0 1013264
03:00+15sw2275100 0.0 101326
06:00+16wsw2370100 0.0 1013105
09:00+15wsw3485100 0.7 1015297
12:00+14w3793100 3.4 1016456
15:00+13sw5988100 5.1 1017382
18:00+13ssw51076100 0.0 1017213
21:00+14ssw3668100 0.0 1018118
17 may, tue
tue1700:00+14wsw2267100 0.0 101827
03:00+14sw2370100 0.0 101859
06:00+14sw2376100 0.0 1018156
09:00+14wsw1277100 0.0 1018104
12:00+17wnw1259100 0.0 1017797
15:00+16sw1269100 0.0 1016168
18:00+17sw126768 0.0 1015173
21:00+14ssw216892 0.0 101618
18 may, wed
wed1800:00+14w2267100 0.0 101630
03:00+12sw227963 0.1 101724
06:00+14ssw22755 0.0 101677
09:00+19ene225611 0.0 10151075
12:00+22ene55499 0.0 10111417
15:00+21ene7751100 0.0 10091103
18:00+18ene47710 0.0 1009356
21:00+12w119226 0.0 101015
19 may, thu
thu1900:00+12wsw229214 0.0 101026
03:00+11wsw23911 0.0 101040
06:00+12w498669 0.0 1014488
09:00+13wsw4584100 0.0 1016579
12:00+13w4584100 0.1 1018578
15:00+11wnw4896100 1.3 1020602
18:00+9wsw61094100 3.3 1023613
21:00+9sw51190100 4.9 1024391
20 may, fri
fri2000:00+10sw51180100 0.3 1022305
03:00+10wsw31276100 0.3 1022443
06:00+10wsw41079100 0.3 1023484
09:00+13w6973100 1.2 10221128
12:00+15w696751 1.8 10211458
15:00+15w476695 2.9 1020529
18:00+13wsw487797 0.7 1021308
21:00+11wsw6118999 1.6 1022470